Location: Andiroba
(19.8650°S, 43.9258°W)
Time: 23:56:31
(UTC+00:00)

Cosmos 1812 Rocket - Pass Details

Date: 15 June 2024
Orbit: 603 x 627 km, 82.5° (Epoch: 24 July)

Event Time Altitude Azimuth Distance (km) Brightness Sun altitude
Rises 08:07:08 0° 340° (NNW) 2,872 7.0 -18.6°
Reaches altitude 10° 08:09:27 10° 332° (NNW) 1,978 6.0 -18.1°
Maximum altitude 08:13:32 38° 263° (W) 952 4.0 -17.1°
Enters shadow 08:16:35 17° 201° (SSW) 1,613 5.3 -16.5°
